Regional Weather Roundup
Issued by NWS Green Bay, WI

Home | Current Version | Previous Version | Text Only | Print | Product List | Glossary On
Versions: 1 2 3 4 5 6 7 8 9 10 11 12 13 14 15 16 17 18 19 20 21 22 23 24 25 26 27 28 29 30 31 32 33 34 35 36 37 38 39 40 41 42 43 44 45 46 47 48 49 50
000
ASUS43 KGRB 301810
RWRGRB

NORTH-CENTRAL AND NORTHEAST WISCONSIN REGIONAL WEATHER ROUNDUP
NATIONAL WEATHER SERVICE GREEN BAY WI
100 PM CDT MON MAR 30 2015

WIZ005-009-010>012-018-019-301900-
NORTH CENTRAL WISCONSIN

CITY           SKY/WX    TMP DP  RH WIND       PRES   REMARKS
IRONWOOD       MOSUNNY   46  25  42 NW12G17   29.88F
MANITOWISH WTR SUNNY     44  24  44 NW12G20   29.89F
ARBOR VITAE    SUNNY     49  24  37 NW12G20   29.90S
EAGLE RIVER    SUNNY     47  19  32 W17G24    29.89S
LAND O LAKES   SUNNY     45  22  40 N14G20    29.89F
RHINELANDER    SUNNY     49  21  33 NW15G24   29.91S
PHILLIPS       CLOUDY    48  22  37 W9        29.91F
ANTIGO         SUNNY     48  25  40 NW16G23   29.91S
TOMAHAWK       MOSUNNY   51  22  32 NW13G18   29.91F
MERRILL        MOSUNNY   51  24  34 W13G22    29.91S
$$

WIZ013-073-301900-
NORTHEAST WISCONSIN

CITY           SKY/WX    TMP DP  RH WIND       PRES   REMARKS
IRON MOUNTAIN  SUNNY     47  22  37 W14G24    29.88S
MARINETTE      SUNNY     50  23  34 NW12G17   29.91R
OCONTO         SUNNY     53  23  31 NW12G21   29.90S
$$

WIZ017-030-035>037-045-301900-
CENTRAL WISCONSIN

CITY           SKY/WX    TMP DP  RH WIND       PRES   REMARKS
MEDFORD        CLOUDY    49  29  45 W14G21    29.93S
WAUSAU         MOSUNNY   51  23  33 NW12      29.91R
MOSINEE        SUNNY     50  27  40 W15       29.94S
MARSHFIELD     CLOUDY    52  29  41 W10       29.95S
WISC RAPIDS    CLOUDY    54  26  34 NW9       29.96S
STEVENS POINT  PTSUNNY   50  26  38 W8G16     29.95R
WAUPACA        MOSUNNY   56  22  27 NW14      29.94S
SHAWANO        SUNNY     55  24  30 NW13G22   29.92F
CLINTONVILLE   SUNNY     54  23  30 NW10G17   29.92F
$$

WIZ038-039-048-051-301900-
FOX VALLEY

CITY           SKY/WX    TMP DP  RH WIND       PRES   REMARKS
NWS GREEN BAY  SUNNY     54  30  40 W14       29.93S
APPLETON       PTSUNNY   54  23  30 W12G18    29.94S
OSHKOSH        PTSUNNY   54  28  36 W13       29.94F
FOND DU LAC    PTSUNNY   54  30  40 W9        29.94F
$$

WIZ022-050-052-301900-
EAST CENTRAL WISCONSIN

CITY           SKY/WX    TMP DP  RH WIND       PRES   REMARKS
STURGEON BAY   SUNNY     46  28  49 N8        29.95R
MANITOWOC      SUNNY     53  27  36 NW17G26   29.94R
SHEBOYGAN      SUNNY     53  29  39 W14       29.95S
$$

LMZ563-521-522-541>543-301900-
LAKESHORE

STATION/POSITION TIME  TEMP    WIND        PRES    VSBY  WAVE
                       AIR SEA DIR/SP/G                  HT/PER
                 (UTC) (F)     (DEG/KT/KT) (MB)    (MI)  (FT/S)
SHEBOYGAN LKSHOR 1800   51     270/ 14/ 18 1014.7R
KEWAUNEE LKSHORE 1800          320/ 14/ 21   N/A
NORTHPORT PIER   1800   42     340/  2/  3 1013.5S
STURGEON BAY CG  1800   51     290/  5     1013.1      6   0
CHAMBERS ISLAND  1800   41      40/  5/  6 1013.5R
MENOMINEE LKSHOR 1800   48     300/  8     1013.5S
$$


USA.gov is the U.S. government's official web portal to all federal, state and local government web resources and services.